Location: Madrid
(40.4000°N, 3.6830°W)
Time: 13:54:54
(UTC+01:00)

ISS - Pass Details

Date: 08 December 2017
Orbit: 402 x 406 km, 51.6° (Epoch: 16 December)

Event Time Altitude Azimuth Distance (km) Brightness Sun altitude
Rises 19:08:16 0° 309° (NW) 2,331 0.5 -14.8°
Reaches altitude 10° 19:11:20 10° 340° (NNW) 1,469 -1.0 -15.4°
Enters shadow 19:12:50 13° 7° (N) 1,320 -1.5 -15.6°
